Location: Agadir Irigdalene
(31.2522°N, 8.7797°W)
Time: 05:40:11
(UTC+00:00)

Hubble Space Telescope - Pass Details

Date: 01 December 2020
Orbit: 536 x 539 km, 28.5° (Epoch: 25 January)

Event Time Altitude Azimuth Distance (km) Brightness Sun altitude
Rises 18:18:09 0° 225° (SW) 2,662 5.6 -9.9°
Reaches altitude 10° 18:20:48 10° 209° (SSW) 1,773 4.2 -10.4°
Maximum altitude 18:23:56 21° 159° (SSE) 1,213 2.6 -11.1°
Enters shadow 18:26:57 11° 110° (ESE) 1,735 2.9 -11.7°
